Weather History for Oxford, CT

Change the Weather History Date:

Friday, November 25, 2011

  Actual Average Record
Temperature  
Mean Temperature 46 °F -  
Max Temperature 60 °F 44 °F 64 °F (2014)
Min Temperature 32 °F 30 °F 12 °F (2000)
Degree Days  
Heating Degree Days 19    
Moisture  
Dew Point 32 °F    
Average Humidity 67    
Maximum Humidity 87    
Minimum Humidity 36    
Precipitation  
Precipitation 0.00 in - - ()
Sea Level Pressure  
Sea Level Pressure 30.14 in    
Wind  
Wind Speed 2 mph (WSW)    
Max Wind Speed 7 mph    
Max Gust Speed -    
Visibility 10 miles    
Events      
Averages and records for this station are not official NWS values.
T = Trace of Precipitation, MM = Missing Value Source: NWS Daily Summary

Daily Weather History Graph

Daily Weather History Graph

Search for Another Location

Airport:

Trip Planner

Search our weather history database for the weather conditions in past years. The results will help you decide how hot, cold, wet, or windy it might be!

Date:

Astronomy

Nov. 25, 2011 Rise Set
Actual Time 6:52 AM EST 4:26 PM EST
Civil Twilight 6:22 AM EST 4:56 PM EST
Nautical Twilight 5:48 AM EST 5:30 PM EST
Astronomical Twilight 5:14 AM EST 6:03 PM EST
Moon 7:18 AM EST (11/25) 4:50 PM EST (11/25)
Length of Visible Light 10h 34m
Length of Day
9h 33m
New Moon, 0% of the Moon is Illuminated
Nov 25
New Moon
Dec 2
First Quarter
Dec 10
Full
Dec 17
Last Quarter
Dec 24
New

Hourly Weather History & Observations

Time (EST) Temp. Windchill Dew Point Humidity Pressure Visibility Wind Dir Wind Speed Gust Speed Precip Events Conditions
12:55 AM 33.8 °F - 30.2 °F 87% 30.16 in 10.0 mi Calm Calm - N/A   Clear
1:15 AM 33.8 °F - 28.4 °F 81% 30.16 in 10.0 mi Calm Calm - N/A   Clear
1:55 AM 35.6 °F 32.8 °F 32.0 °F 87% 30.16 in 10.0 mi North 3.5 mph - N/A   Clear
2:15 AM 37.4 °F 34.9 °F 30.2 °F 75% 30.16 in 10.0 mi NNW 3.5 mph - N/A   Clear
2:35 AM 35.6 °F - 28.4 °F 75% 30.16 in 10.0 mi Calm Calm - N/A   Clear
2:55 AM 33.8 °F - 26.6 °F 75% 30.15 in 10.0 mi Calm Calm - N/A   Clear
3:35 AM 35.6 °F - 30.2 °F 81% 30.15 in 10.0 mi Calm Calm - N/A   Clear
3:55 AM 33.8 °F - 28.4 °F 81% 30.15 in 10.0 mi Calm Calm - N/A   Clear
4:15 AM 35.6 °F 32.8 °F 30.2 °F 81% 30.15 in 10.0 mi WNW 3.5 mph - N/A   Clear
4:35 AM 33.8 °F - 28.4 °F 81% 30.15 in 10.0 mi Calm Calm - N/A   Clear
5:45 AM 32.0 °F - 28.4 °F 87% 30.14 in 10.0 mi Calm Calm - N/A   Clear
6:45 AM 35.6 °F - 30.2 °F 81% 30.16 in 10.0 mi Calm Calm - N/A   Clear
7:45 AM 39.2 °F - 33.8 °F 81% 30.16 in 10.0 mi Calm Calm - N/A   Clear
8:45 AM 42.8 °F - 33.8 °F 70% 30.16 in 10.0 mi Calm Calm - N/A   Clear
9:45 AM 44.6 °F 40.7 °F 33.8 °F 66% 30.16 in 10.0 mi West 6.9 mph - N/A   Clear
10:45 AM 48.2 °F - 35.6 °F 62% 30.15 in 10.0 mi West 4.6 mph - N/A   Clear
11:55 AM 51.8 °F - 35.6 °F 54% 30.12 in 10.0 mi WNW 6.9 mph - N/A   Clear
1:45 PM 57.2 °F - 37.4 °F 48% 30.10 in 10.0 mi West 6.9 mph - N/A   Clear
2:45 PM 60.8 °F - 33.8 °F 36% 30.09 in 10.0 mi West 5.8 mph - N/A   Clear
4:45 PM 55.4 °F - 32.0 °F 41% 30.10 in 10.0 mi West 3.5 mph - N/A   Clear
5:45 PM 53.6 °F - 32.0 °F 44% 30.11 in 10.0 mi WSW 3.5 mph - N/A   Clear
6:45 PM 51.8 °F - 32.0 °F 47% 30.11 in 10.0 mi SSW 3.5 mph - N/A   Clear
7:45 PM 51.8 °F - 32.0 °F 47% 30.11 in 10.0 mi SSW 3.5 mph - N/A   Clear
8:55 PM 51.8 °F - 33.8 °F 50% 30.12 in 10.0 mi SSW 3.5 mph - N/A   Clear
9:15 PM 48.2 °F - 33.8 °F 58% 30.12 in 10.0 mi SW 3.5 mph - N/A   Clear
9:55 PM 48.2 °F - 33.8 °F 58% 30.13 in 10.0 mi SW 3.5 mph - N/A   Clear
10:15 PM 46.4 °F 45.2 °F 33.8 °F 62% 30.13 in 10.0 mi SSW 3.5 mph - N/A   Clear
10:35 PM 44.6 °F 43.1 °F 33.8 °F 66% 30.13 in 10.0 mi South 3.5 mph - N/A   Clear
10:55 PM 46.4 °F 44.3 °F 35.6 °F 66% 30.13 in 10.0 mi SSW 4.6 mph - N/A   Clear
11:55 PM 44.6 °F 42.2 °F 35.6 °F 71% 30.13 in 10.0 mi SW 4.6 mph - N/A   Clear